When you browse on this site, cookies collect data to enhance your experience and personalize the content and advertising you see.
Visit our Privacy Policy to learn more. By continuing to use the site, you agree to this use of cookies and data.
  • In Germany
  • List of Countries
  • For 7 days
  • Water Temperature
  • Weather Map
  • Weather Widgets
  • user-avatar
    Login

    Hourly Weather Hobart

    Today, 25 August, Sunday

    Time Temperature Precipitation Wind Pressure Humidity
    00:00 +3°C° 0.2 mm 4 mps 740 mmHg 95%
    01:00 +3°C° 0.2 mm 4 mps 741 mmHg 94%
    02:00 +3°C° 0 mm 4 mps 742 mmHg 93%
    03:00 +1°C° 0 mm 4 mps 743 mmHg 92%
    04:00 +3°C° 0 mm 2 mps 744 mmHg 92%
    05:00 +1°C° 0 mm 3 mps 744 mmHg 92%
    06:00 +1°C° 0 mm 3 mps 745 mmHg 92%
    07:00 +1°C° 0 mm 3 mps 745 mmHg 92%
    08:00 +3°C° 0 mm 3 mps 746 mmHg 88%
    09:00 +5°C° 0 mm 3 mps 746 mmHg 84%
    10:00 +8°C° 0 mm 2 mps 747 mmHg 78%
    11:00 +9°C° 0 mm 3 mps 747 mmHg 72%
    12:00 +9°C° 0 mm 3 mps 747 mmHg 66%
    13:00 +10°C° 0 mm 4 mps 747 mmHg 60%
    14:00 +10°C° 0 mm 3 mps 747 mmHg 60%
    15:00 +10°C° 0 mm 3 mps 747 mmHg 60%
    16:00 +10°C° 0 mm 2 mps 747 mmHg 60%
    17:00 +9°C° 0 mm 2 mps 748 mmHg 67%
    18:00 +8°C° 0 mm 2 mps 748 mmHg 74%
    19:00 +7°C° 0 mm 2 mps 748 mmHg 81%
    20:00 +7°C° 0 mm 2 mps 749 mmHg 84%
    21:00 +6°C° 0 mm 2 mps 749 mmHg 86%
    22:00 +6°C° 0 mm 2 mps 749 mmHg 89%
    23:00 +6°C° 0 mm 2 mps 749 mmHg 89%

    Tomorrow, 26 August, Monday

    Time Temperature Precipitation Wind Pressure Humidity
    00:00 +6°C° 0 mm 2 mps 750 mmHg 90%
    01:00 +6°C° 0 mm 2 mps 750 mmHg 90%
    02:00 +6°C° 0 mm 2 mps 750 mmHg 91%
    03:00 +5°C° 0 mm 2 mps 749 mmHg 92%
    04:00 +5°C° 0 mm 2 mps 749 mmHg 93%
    05:00 +5°C° 0 mm 2 mps 749 mmHg 92%
    06:00 +5°C° 0 mm 2 mps 750 mmHg 92%
    07:00 +5°C° 0 mm 2 mps 750 mmHg 91%
    08:00 +7°C° 0 mm 3 mps 750 mmHg 83%
    09:00 +9°C° 0 mm 3 mps 750 mmHg 75%
    10:00 +10°C° 0 mm 4 mps 750 mmHg 68%
    11:00 +10°C° 0 mm 3 mps 750 mmHg 68%
    12:00 +10°C° 0 mm 3 mps 750 mmHg 69%
    13:00 +10°C° 0 mm 3 mps 749 mmHg 70%
    14:00 +11°C° 0 mm 3 mps 749 mmHg 65%
    15:00 +11°C° 0 mm 4 mps 749 mmHg 61%
    16:00 +11°C° 0 mm 4 mps 749 mmHg 56%
    17:00 +10°C° 0 mm 3 mps 749 mmHg 63%
    18:00 +8°C° 0 mm 3 mps 749 mmHg 69%
    19:00 +7°C° 0 mm 3 mps 749 mmHg 75%
    20:00 +5°C° 0 mm 3 mps 749 mmHg 79%
    21:00 +5°C° 0 mm 3 mps 749 mmHg 82%
    22:00 +5°C° 0 mm 3 mps 749 mmHg 85%
    23:00 +5°C° 0 mm 3 mps 749 mmHg 84%

    Day after tomorrow, 27 August, Tuesday

    Time Temperature Precipitation Wind Pressure Humidity
    00:00 +7°C° 0 mm 3 mps 749 mmHg 82%
    01:00 +8°C° 0 mm 3 mps 749 mmHg 80%
    02:00 +8°C° 0 mm 3 mps 748 mmHg 80%
    03:00 +8°C° 0 mm 3 mps 748 mmHg 80%
    04:00 +8°C° 0 mm 3 mps 748 mmHg 80%
    05:00 +8°C° 0 mm 3 mps 748 mmHg 81%
    06:00 +7°C° 0 mm 3 mps 748 mmHg 82%
    07:00 +7°C° 0 mm 3 mps 748 mmHg 83%
    08:00 +8°C° 0 mm 3 mps 748 mmHg 78%
    09:00 +8°C° 0 mm 4 mps 748 mmHg 73%
    10:00 +10°C° 0 mm 4 mps 748 mmHg 68%
    11:00 +11°C° 0 mm 4 mps 747 mmHg 66%
    12:00 +12°C° 0 mm 4 mps 747 mmHg 65%
    13:00 +12°C° 0 mm 5 mps 746 mmHg 63%
    14:00 +12°C° 0 mm 4 mps 746 mmHg 65%
    15:00 +11°C° 0 mm 4 mps 746 mmHg 67%
    16:00 +11°C° 0 mm 4 mps 745 mmHg 70%
    17:00 +10°C° 0 mm 4 mps 745 mmHg 73%
    18:00 +10°C° 0 mm 3 mps 745 mmHg 77%
    19:00 +9°C° 0 mm 3 mps 745 mmHg 80%
    20:00 +9°C° 0 mm 3 mps 745 mmHg 81%
    21:00 +8°C° 0 mm 4 mps 744 mmHg 81%
    22:00 +8°C° 0 mm 4 mps 744 mmHg 81%
    23:00 +8°C° 0 mm 4 mps 743 mmHg 81%

    28 August, Wednesday

    Time Temperature Precipitation Wind Pressure Humidity
    00:00 +8°C° 0 mm 4 mps 743 mmHg 82%
    01:00 +8°C° 0 mm 4 mps 742 mmHg 82%
    02:00 +8°C° 0 mm 4 mps 742 mmHg 81%
    03:00 +8°C° 0 mm 4 mps 741 mmHg 80%
    04:00 +8°C° 0 mm 5 mps 740 mmHg 79%
    05:00 +8°C° 0.5 mm 5 mps 740 mmHg 81%
    06:00 +7°C° 0.5 mm 4 mps 740 mmHg 83%
    07:00 +7°C° 0.5 mm 4 mps 740 mmHg 86%
    08:00 +6°C° 0.7 mm 5 mps 741 mmHg 86%
    09:00 +5°C° 0.7 mm 5 mps 742 mmHg 86%
    10:00 +3°C° 0.7 mm 6 mps 742 mmHg 86%
    11:00 +4°C° 0.1 mm 6 mps 743 mmHg 76%
    12:00 +5°C° 0.1 mm 7 mps 743 mmHg 66%
    13:00 +6°C° 0.1 mm 8 mps 744 mmHg 56%
    14:00 +5°C° 0.2 mm 7 mps 744 mmHg 62%
    15:00 +5°C° 0.2 mm 6 mps 745 mmHg 67%
    16:00 +5°C° 0.2 mm 5 mps 746 mmHg 72%
    17:00 +4°C° 0.1 mm 4 mps 747 mmHg 78%
    18:00 +3°C° 0.1 mm 4 mps 749 mmHg 83%
    19:00 +1°C° 0.1 mm 4 mps 750 mmHg 88%
    20:00 +1°C° 0 mm 3 mps 751 mmHg 89%
    21:00 +1°C° 0 mm 3 mps 752 mmHg 89%
    22:00 0°C° 0 mm 3 mps 753 mmHg 90%
    23:00 0°C° 0 mm 3 mps 753 mmHg 90%

    29 August, Thursday

    Time Temperature Precipitation Wind Pressure Humidity
    00:00 0°C° 0 mm 3 mps 754 mmHg 90%
    01:00 -1°C° 0 mm 3 mps 754 mmHg 90%
    02:00 -1°C° 0 mm 3 mps 754 mmHg 90%
    03:00 -1°C° 0 mm 3 mps 754 mmHg 91%
    04:00 -1°C° 0 mm 3 mps 755 mmHg 91%
    05:00 -1°C° 0 mm 2 mps 755 mmHg 92%
    06:00 -1°C° 0 mm 2 mps 756 mmHg 93%
    07:00 -1°C° 0 mm 2 mps 756 mmHg 93%
    08:00 +2°C° 0 mm 2 mps 757 mmHg 83%
    09:00 +5°C° 0 mm 2 mps 757 mmHg 73%
    10:00 +8°C° 0 mm 1 mps 757 mmHg 63%
    11:00 +10°C° 0 mm 1 mps 757 mmHg 58%
    12:00 +11°C° 0 mm 1 mps 758 mmHg 54%
    13:00 +12°C° 0 mm 1 mps 758 mmHg 49%
    14:00 +12°C° 0 mm 1 mps 758 mmHg 53%
    15:00 +10°C° 0 mm 2 mps 758 mmHg 57%
    16:00 +9°C° 0 mm 2 mps 758 mmHg 61%
    17:00 +7°C° 0 mm 2 mps 758 mmHg 72%
    18:00 +6°C° 0 mm 1 mps 759 mmHg 82%
    19:00 +4°C° 0 mm 1 mps 759 mmHg 92%
    20:00 +4°C° 0 mm 1 mps 759 mmHg 93%
    21:00 +4°C° 0 mm 1 mps 759 mmHg 94%
    22:00 +2°C° 0 mm 2 mps 760 mmHg 95%
    23:00 +2°C° 0 mm 2 mps 760 mmHg 95%

    30 August, Friday

    Time Temperature Precipitation Wind Pressure Humidity
    00:00 +1°C° 0 mm 2 mps 759 mmHg 95%
    01:00 +1°C° 0 mm 2 mps 759 mmHg 94%
    02:00 +1°C° 0 mm 2 mps 759 mmHg 94%
    03:00 +2°C° 0 mm 1 mps 759 mmHg 94%
    04:00 +1°C° 0 mm 1 mps 758 mmHg 94%
    05:00 +1°C° 0 mm 1 mps 759 mmHg 94%
    06:00 +1°C° 0 mm 1 mps 759 mmHg 93%
    07:00 +1°C° 0 mm 1 mps 759 mmHg 93%
    08:00 +4°C° 0 mm 1 mps 759 mmHg 80%
    09:00 +7°C° 0 mm 1 mps 759 mmHg 68%
    10:00 +10°C° 0 mm 1 mps 759 mmHg 55%
    11:00 +12°C° 0 mm 1 mps 758 mmHg 50%
    12:00 +13°C° 0 mm 1 mps 758 mmHg 45%
    13:00 +15°C° 0 mm 1 mps 757 mmHg 39%
    14:00 +15°C° 0 mm 1 mps 757 mmHg 42%
    15:00 +15°C° 0 mm 1 mps 756 mmHg 45%
    16:00 +14°C° 0 mm 1 mps 756 mmHg 48%
    17:00 +12°C° 0 mm 1 mps 756 mmHg 57%
    18:00 +9°C° 0 mm 1 mps 756 mmHg 67%
    19:00 +7°C° 0 mm 1 mps 756 mmHg 76%
    20:00 +5°C° 0 mm 2 mps 756 mmHg 78%
    21:00 +4°C° 0 mm 3 mps 756 mmHg 80%
    22:00 +3°C° 0 mm 3 mps 755 mmHg 82%
    23:00 +3°C° 0 mm 3 mps 755 mmHg 82%
    Show more